QPF
0.00 0.00 0.00 0.00 0.00 0.00 0.00 0.00 0.00 0.01 0.01 0.01 0.02 0.02 0.03 0.02 0.02 0.06 0.09 0.10 0.09 0.04
0.00 0.00 0.00 0.00 0.00 0.00 0.00 0.00 0.00 0.01 0.05 0.01 0.01 0.01 0.04 0.03 0.07 0.07 0.07 0.10 0.08 0.03
0.00 0.00 0.00 0.00 0.00 0.00 0.00 0.01 0.01 0.02 0.10 0.12 0.06 0.04 0.03 0.02 0.06 0.04 0.06 0.06 0.04 0.07
0.00 0.00 0.00 0.00 0.00 0.00 0.00 0.01 0.01 0.01 0.02 0.07 0.15 0.11 0.07 0.04 0.06 0.04 0.04 0.10 0.11 0.12
0.00 0.00 0.00 0.00 0.00 0.00 0.00 0.01 0.01 0.02 0.03 0.05 0.09 0.14 0.13 0.10 0.08 0.12 0.11 0.09 0.10 0.10
0.00 0.00 0.00 0.00 0.00 0.00 0.00 0.00 0.01 0.04 0.06 0.08 0.14 0.21 0.26 0.31 0.24 0.16 0.07 0.04 0.05 0.05
0.00 0.00 0.00 0.00 0.00 0.00 0.00 0.00 0.00 0.00 0.00 0.00 0.01 0.02 0.05 0.10 0.14 0.13 0.13 0.14 0.16 0.14
0.00 0.00 0.00 0.00 0.00 0.00 0.00 0.00 0.00 0.00 0.00 0.00 0.00 0.01 0.02 0.05 0.05 0.04 0.03 0.04 0.05 0.07
0.00 0.00 0.00 0.00 0.00 0.00 0.00 0.00 0.00 0.00 0.00 0.00 0.00 0.00 0.00 0.00 0.00 0.00 0.00 0.01 0.02 0.04
0.00 0.00 0.00 0.00 0.00 0.00 0.00 0.00 0.00 0.00 0.00 0.00 0.00 0.00 0.00 0.00 0.00 0.00 0.00 0.00 0.00 0.00
0.00 0.00 0.00 0.00 0.00 0.00 0.00 0.00 0.00 0.00 0.00 0.00 0.00 0.00 0.00 0.00 0.00 0.00 0.00 0.00 0.00 0.00
0.00 0.00 0.00 0.00 0.00 0.00 0.00 0.00 0.00 0.00 0.00 0.00 0.00 0.00 0.00 0.00 0.00 0.00 0.00 0.00 0.00 0.00
0.00 0.00 0.00 0.00 0.00 0.00 0.00 0.00 0.00 0.00 0.00 0.00 0.00 0.00 0.00 0.00 0.00 0.00 0.00 0.00 0.00 0.00
0.00 0.00 0.00 0.00 0.00 0.00 0.00 0.00 0.00 0.00 0.00 0.00 0.00 0.00 0.00 0.00 0.00 0.00 0.00 0.00 0.00 0.00
MSLP
1004.95 1005.35 1005.43 1005.44 1005.49 1005.56 1005.53 1005.31 1005.07 1004.99 1004.91 1004.99 1005.24 1005.56 1005.90 1006.22 1006.27 1006.41 1006.51 1006.68 1006.79 1006.86
1005.23 1005.35 1005.47 1005.35 1005.29 1005.23 1005.22 1005.22 1005.03 1004.74 1004.60 1004.77 1004.94 1005.08 1005.49 1005.66 1005.77 1005.84 1005.87 1006.06 1006.29 1006.65
1005.77 1005.79 1005.86 1005.83 1005.78 1005.60 1005.32 1005.17 1004.98 1004.78 1004.50 1004.64 1004.79 1005.00 1004.83 1005.11 1005.20 1005.30 1005.32 1005.47 1005.91 1006.08
1006.35 1006.20 1006.20 1006.30 1006.38 1006.26 1005.97 1005.78 1005.42 1005.07 1004.76 1004.58 1004.67 1004.35 1004.76 1004.43 1004.63 1004.75 1004.84 1005.03 1005.62 1005.72
1006.80 1006.68 1006.73 1006.85 1006.86 1006.76 1006.44 1006.19 1005.96 1005.73 1005.43 1005.17 1005.10 1004.81 1004.61 1004.23 1004.14 1004.21 1004.30 1004.57 1005.22 1005.48
1007.27 1007.17 1007.08 1007.28 1007.29 1007.18 1006.95 1006.68 1006.41 1005.99 1005.83 1006.00 1006.02 1005.68 1005.41 1004.93 1004.02 1003.63 1003.68 1003.63 1004.21 1005.03
1007.65 1007.52 1007.53 1007.61 1007.63 1007.64 1007.50 1007.26 1006.89 1006.57 1006.12 1006.03 1006.92 1007.22 1006.82 1006.21 1005.68 1004.96 1004.18 1003.77 1003.65 1003.47
1008.01 1007.91 1008.17 1008.26 1008.20 1008.15 1008.06 1008.00 1007.74 1007.46 1007.17 1007.20 1007.59 1008.34 1007.93 1007.11 1006.66 1006.05 1005.51 1005.03 1004.59 1004.10
1008.38 1008.51 1008.81 1008.79 1008.87 1008.97 1008.88 1008.68 1008.63 1008.51 1008.44 1009.14 1008.66 1008.62 1008.52 1007.99 1007.03 1006.83 1006.63 1006.19 1005.93 1005.43
1009.16 1009.15 1009.39 1009.16 1009.41 1009.72 1009.57 1009.54 1009.63 1009.84 1009.87 1009.93 1010.13 1009.82 1008.77 1009.02 1007.93 1007.79 1007.67 1007.24 1006.82 1006.40
1009.70 1009.86 1010.00 1009.96 1010.42 1010.50 1010.42 1010.82 1010.82 1010.83 1010.68 1010.66 1010.70 1010.35 1009.98 1009.54 1008.91 1008.79 1008.70 1008.34 1008.01 1007.73
1010.52 1010.51 1010.85 1011.03 1011.34 1011.42 1011.45 1011.64 1011.60 1011.72 1011.52 1011.46 1011.39 1011.29 1010.93 1010.07 1009.26 1008.98 1008.95 1008.83 1008.87 1008.55
1011.33 1011.37 1011.94 1012.14 1012.28 1012.42 1012.20 1012.20 1012.25 1012.22 1011.98 1011.71 1011.50 1011.62 1011.32 1010.79 1010.07 1009.67 1009.21 1008.94 1008.87 1008.70
1012.41 1012.54 1013.03 1012.94 1013.00 1013.05 1012.95 1012.82 1012.80 1012.48 1012.14 1012.11 1012.10 1011.71 1011.55 1011.08 1010.57 1010.27 1009.75 1009.37 1009.16 1008.85
Thickness
5746 5740 5738 5736 5733 5731 5729 5729 5730 5727 5724 5722 5718 5710 5703 5696 5694 5690 5684 5679 5672 5670
5736 5733 5730 5729 5728 5726 5725 5723 5722 5720 5715 5710 5706 5701 5692 5687 5683 5679 5677 5673 5665 5658
5722 5721 5719 5717 5714 5713 5714 5712 5710 5708 5705 5694 5689 5684 5682 5676 5674 5668 5666 5661 5655 5651
5709 5708 5706 5702 5699 5697 5697 5694 5693 5692 5690 5685 5676 5673 5666 5667 5662 5658 5655 5651 5644 5639
5694 5693 5690 5686 5684 5681 5679 5676 5673 5668 5666 5664 5658 5656 5651 5652 5651 5648 5644 5642 5633 5630
5677 5677 5674 5670 5666 5662 5658 5655 5651 5650 5646 5639 5634 5633 5634 5635 5640 5640 5639 5637 5628 5621
5659 5659 5657 5653 5647 5640 5635 5632 5629 5627 5627 5624 5612 5606 5608 5610 5611 5615 5621 5621 5617 5619
5644 5642 5637 5630 5625 5617 5611 5606 5604 5604 5603 5599 5591 5582 5583 5589 5590 5593 5595 5597 5598 5599
5629 5624 5614 5609 5601 5593 5588 5585 5582 5580 5578 5568 5570 5565 5565 5568 5575 5574 5571 5573 5573 5574
5608 5602 5595 5590 5581 5573 5570 5566 5562 5556 5552 5549 5544 5542 5549 5545 5554 5553 5550 5550 5551 5550
5588 5583 5577 5571 5560 5553 5550 5542 5540 5537 5535 5532 5528 5527 5527 5527 5531 5529 5527 5526 5525 5523
5566 5563 5556 5549 5540 5535 5531 5525 5524 5519 5518 5516 5513 5510 5509 5512 5516 5515 5510 5507 5501 5500
5545 5541 5531 5525 5520 5516 5515 5511 5507 5504 5504 5502 5500 5493 5491 5491 5494 5492 5492 5488 5482 5477
5523 5518 5509 5507 5503 5500 5497 5494 5490 5490 5489 5484 5479 5477 5472 5472 5471 5467 5467 5464 5460 5456